Location: ??????
(55.7522°N, 37.6156°E)
Time: 16:29:39
(UTC+00:00)

CZ-2D R/B - Pass Details

Date: 14 June 2025
Orbit: 789 x 842 km, 98.8° (Epoch: 12 July)

Event Time Altitude Azimuth Distance (km) Brightness Sun altitude
Rises 22:32:44 0° 24° (NNE) 3,398 7.4 -9.8°
Reaches altitude 10° 22:35:54 10° 43° (NE) 2,450 5.7 -9.7°
Maximum altitude 22:39:34 18° 86° (E) 1,919 4.3 -9.6°
Drops below altitude 10° 22:43:11 10° 129° (SE) 2,415 4.4 -9.4°
Sets 22:46:16 0° 148° (SSE) 3,331 4.9 -9.3°
